Time,TemperatureF,DewpointF,PressureIn,WindDirection,WindDirectionDegrees,WindSpeedMPH,WindSpeedGustMPH,Humidity,HourlyPrecipIn,Conditions,Clouds,dailyrainin,SolarRadiationWatts/m^2,SoftwareType,DateUTC
2013-10-09 00:01:00,67.9,64.2,29.96,ESE,103,7.0,20.0,88,0.00,FEW,SCT,0.00,0.0,WeatherDisplay:10.37,2013-10-09 10:01:00,
2013-10-09 00:10:00,68.1,64.1,29.95,East,96,7.0,14.0,87,0.00,SCT,SCT,0.00,0.0,WeatherDisplay:10.37,2013-10-09 10:10:00,
2013-10-09 00:20:00,68.2,63.5,29.95,ENE,78,9.0,17.0,85,0.00,SCT,SCT,0.00,0.0,WeatherDisplay:10.37,2013-10-09 10:20:00,
2013-10-09 00:31:00,68.2,62.8,29.95,East,88,10.0,23.0,83,0.00,SCT,SCT,0.00,0.0,WeatherDisplay:10.37,2013-10-09 10:31:00,
2013-10-09 00:40:00,68.0,61.9,29.95,East,90,14.0,21.0,81,0.00,SCT,SCT,0.00,0.0,WeatherDisplay:10.37,2013-10-09 10:40:00,
2013-10-09 00:50:00,68.3,61.9,29.95,East,81,10.0,25.0,80,0.00,SCT,SCT,0.00,0.0,WeatherDisplay:10.37,2013-10-09 10:50:00,
2013-10-09 01:01:00,68.4,60.5,29.94,East,83,15.0,21.0,76,0.00,SCT,SCT,0.00,0.0,WeatherDisplay:10.37,2013-10-09 11:01:00,
2013-10-09 01:10:00,68.5,61.4,29.94,East,84,10.0,21.0,78,0.00,FEW,SCT,0.00,0.0,WeatherDisplay:10.37,2013-10-09 11:10:00,
2013-10-09 01:20:00,68.8,61.3,29.94,East,94,10.0,22.0,77,0.00,FEW,SCT,0.00,0.0,WeatherDisplay:10.37,2013-10-09 11:20:00,
2013-10-09 01:31:00,68.9,61.4,29.93,East,84,12.0,20.0,77,0.00,FEW,SCT,0.00,0.0,WeatherDisplay:10.37,2013-10-09 11:31:00,
2013-10-09 01:40:00,69.0,61.5,29.93,East,87,6.0,17.0,77,0.00,FEW,SCT,0.00,0.0,WeatherDisplay:10.37,2013-10-09 11:40:00,
2013-10-09 01:50:00,69.0,61.1,29.93,ESE,116,7.0,15.0,76,0.00,FEW,SCT,0.00,0.0,WeatherDisplay:10.37,2013-10-09 11:50:00,
2013-10-09 02:01:00,68.9,59.9,29.93,ESE,103,5.0,13.0,73,0.00,FEW,SCT,0.00,0.0,WeatherDisplay:10.37,2013-10-09 12:01:00,
2013-10-09 02:10:00,69.1,61.5,29.93,East,84,8.0,26.0,77,0.00,CLR,SCT,0.00,0.0,WeatherDisplay:10.37,2013-10-09 12:10:00,
2013-10-09 02:20:00,68.5,62.1,29.93,East,92,7.0,15.0,80,0.00,CLR,SCT,0.00,0.0,WeatherDisplay:10.37,2013-10-09 12:20:00,
2013-10-09 02:31:00,68.5,62.1,29.92,East,95,10.0,18.0,80,0.00,CLR,SCT,0.00,0.0,WeatherDisplay:10.37,2013-10-09 12:31:00,
2013-10-09 02:40:00,68.6,61.8,29.92,ESE,105,8.0,17.0,79,0.00,CLR,SCT,0.00,0.0,WeatherDisplay:10.37,2013-10-09 12:40:00,
2013-10-09 02:50:00,68.6,61.5,29.92,East,98,8.0,13.0,78,0.00,CLR,SCT,0.00,0.0,WeatherDisplay:10.37,2013-10-09 12:50:00,
2013-10-09 03:01:00,68.6,61.5,29.92,ESE,106,6.0,14.0,78,0.00,CLR,SCT,0.00,0.0,WeatherDisplay:10.37,2013-10-09 13:01:00,
2013-10-09 03:10:00,68.5,61.4,29.92,East,100,5.0,13.0,78,0.00,CLR,SCT,0.00,0.0,WeatherDisplay:10.37,2013-10-09 13:10:00,
2013-10-09 03:20:00,68.7,61.5,29.92,East,96,5.0,12.0,78,0.00,CLR,SCT,0.00,0.0,WeatherDisplay:10.37,2013-10-09 13:20:00,
2013-10-09 03:31:00,68.8,61.3,29.92,East,100,5.0,13.0,77,0.00,CLR,SCT,0.00,0.0,WeatherDisplay:10.37,2013-10-09 13:31:00,
2013-10-09 03:40:00,68.8,61.3,29.92,ESE,120,5.0,13.0,77,0.00,CLR,SCT,0.00,0.0,WeatherDisplay:10.37,2013-10-09 13:40:00,
2013-10-09 03:50:00,68.7,61.9,29.92,East,99,8.0,16.0,79,0.00,CLR,SCT,0.00,0.0,WeatherDisplay:10.37,2013-10-09 13:50:00,
2013-10-09 04:01:00,68.8,61.7,29.91,East,101,13.0,18.0,78,0.00,CLR,SCT,0.00,0.0,WeatherDisplay:10.37,2013-10-09 14:01:00,
2013-10-09 04:10:00,69.0,61.5,29.92,East,96,6.0,16.0,77,0.00,CLR,SCT,0.00,0.0,WeatherDisplay:10.37,2013-10-09 14:10:00,
2013-10-09 04:20:00,69.0,61.1,29.92,East,95,7.0,15.0,76,0.00,CLR,SCT,0.00,0.0,WeatherDisplay:10.37,2013-10-09 14:20:00,
2013-10-09 04:31:00,69.2,61.3,29.92,East,97,9.0,15.0,76,0.00,CLR,SCT,0.00,0.0,WeatherDisplay:10.37,2013-10-09 14:31:00,
2013-10-09 04:40:00,69.0,61.1,29.92,East,96,5.0,12.0,76,0.00,CLR,SCT,0.00,0.0,WeatherDisplay:10.37,2013-10-09 14:40:00,
2013-10-09 04:50:00,68.8,60.6,29.92,East,93,5.0,10.0,75,0.00,CLR,SCT,0.00,0.0,WeatherDisplay:10.37,2013-10-09 14:50:00,
2013-10-09 05:01:00,68.7,61.6,29.92,East,101,7.0,16.0,78,0.00,CLR,SCT,0.00,0.0,WeatherDisplay:10.37,2013-10-09 15:01:00,
2013-10-09 05:10:00,68.4,62.0,29.92,East,96,10.0,18.0,80,0.00,FEW,SCT,0.00,0.0,WeatherDisplay:10.37,2013-10-09 15:10:00,
2013-10-09 05:20:00,68.6,62.9,29.93,East,89,8.0,20.0,82,0.00,FEW,SCT,0.00,0.0,WeatherDisplay:10.37,2013-10-09 15:20:00,
2013-10-09 05:31:00,68.5,62.4,29.93,East,83,9.0,16.0,81,0.00,FEW,SCT,0.00,0.0,WeatherDisplay:10.37,2013-10-09 15:31:00,
2013-10-09 05:40:00,68.5,61.7,29.93,East,85,9.0,15.0,79,0.00,FEW,SCT,0.00,0.0,WeatherDisplay:10.37,2013-10-09 15:40:00,
2013-10-09 05:50:00,68.6,62.2,29.92,East,85,9.0,15.0,80,0.00,FEW,SCT,0.00,0.0,WeatherDisplay:10.37,2013-10-09 15:50:00,
2013-10-09 06:01:00,68.8,61.7,29.93,East,88,5.0,16.0,78,0.00,FEW,SCT,0.00,0.0,WeatherDisplay:10.37,2013-10-09 16:01:00,
2013-10-09 06:10:00,68.3,62.3,29.93,ENE,73,6.0,12.0,81,0.00,FEW,SCT,0.00,0.0,WeatherDisplay:10.37,2013-10-09 16:10:00,
2013-10-09 06:20:00,68.2,61.8,29.93,East,85,7.0,17.0,80,0.00,FEW,SCT,0.00,0.0,WeatherDisplay:10.37,2013-10-09 16:20:00,
2013-10-09 06:31:00,68.7,61.5,29.94,East,88,10.0,20.0,78,0.00,FEW,SCT,0.00,0.5,WeatherDisplay:10.37,2013-10-09 16:31:00,
2013-10-09 06:40:00,68.7,61.5,29.94,East,90,5.0,13.0,78,0.00,FEW,SCT,0.00,1.3,WeatherDisplay:10.37,2013-10-09 16:40:00,
2013-10-09 06:50:00,68.7,61.9,29.95,ENE,77,8.0,18.0,79,0.00,FEW,SCT,0.00,4.7,WeatherDisplay:10.37,2013-10-09 16:50:00,
2013-10-09 07:01:00,68.8,61.7,29.95,East,86,6.0,14.0,78,0.00,FEW,SCT,0.00,5.8,WeatherDisplay:10.37,2013-10-09 17:01:00,
2013-10-09 07:10:00,69.0,62.6,29.96,East,80,7.0,17.0,80,0.00,FEW,SCT,0.00,17.0,WeatherDisplay:10.37,2013-10-09 17:10:00,
2013-10-09 07:20:00,69.0,63.3,29.96,East,84,8.0,15.0,82,0.00,FEW,SCT,0.00,18.6,WeatherDisplay:10.37,2013-10-09 17:20:00,
2013-10-09 07:31:00,68.8,63.4,29.95,ENE,77,8.0,15.0,83,0.00,FEW,SCT,0.00,11.9,WeatherDisplay:10.37,2013-10-09 17:31:00,
2013-10-09 07:40:00,68.7,63.3,29.95,ENE,71,8.0,20.0,83,0.00,FEW,SCT,0.00,17.1,WeatherDisplay:10.37,2013-10-09 17:40:00,
2013-10-09 07:50:00,68.6,63.6,29.96,ENE,71,10.0,20.0,84,0.00,FEW,SCT,0.00,36.6,WeatherDisplay:10.37,2013-10-09 17:50:00,
2013-10-09 08:01:00,69.0,64.3,29.96,East,83,5.0,14.0,85,0.00,FEW,SCT,0.00,122.6,WeatherDisplay:10.37,2013-10-09 18:01:00,
2013-10-09 08:10:00,70.2,63.8,29.96,East,86,12.0,18.0,80,0.00,FEW,SCT,0.00,148.3,WeatherDisplay:10.37,2013-10-09 18:10:00,
2013-10-09 08:20:00,71.7,63.7,29.96,East,94,9.0,18.0,76,0.00,FEW,SCT,0.00,186.0,WeatherDisplay:10.37,2013-10-09 18:20:00,
2013-10-09 08:31:00,73.4,64.3,29.96,ENE,77,6.0,16.0,73,0.00,FEW,SCT,0.00,199.0,WeatherDisplay:10.37,2013-10-09 18:31:00,
2013-10-09 08:40:00,74.3,64.7,29.97,East,88,7.0,13.0,72,0.00,FEW,SCT,0.00,225.1,WeatherDisplay:10.37,2013-10-09 18:40:00,
2013-10-09 08:50:00,75.5,66.6,29.97,ENE,65,9.0,18.0,74,0.00,FEW,SCT,0.00,261.3,WeatherDisplay:10.37,2013-10-09 18:50:00,
2013-10-09 09:01:00,75.4,65.4,29.97,ENE,72,10.0,22.0,71,0.00,FEW,SCT,0.00,323.5,WeatherDisplay:10.37,2013-10-09 19:01:00,
2013-10-09 09:10:00,76.0,65.1,29.98,East,81,9.0,17.0,69,0.00,SCT,SCT,0.00,332.2,WeatherDisplay:10.37,2013-10-09 19:10:00,
2013-10-09 09:20:00,76.7,65.3,29.98,East,83,9.0,17.0,68,0.00,SCT,SCT,0.00,354.3,WeatherDisplay:10.37,2013-10-09 19:20:00,
2013-10-09 09:31:00,75.5,64.6,29.97,ENE,77,8.0,16.0,69,0.00,SCT,SCT,0.00,489.9,WeatherDisplay:10.37,2013-10-09 19:31:00,
2013-10-09 09:40:00,76.2,66.1,29.97,ENE,66,9.0,16.0,71,0.00,SCT,SCT,0.00,559.6,WeatherDisplay:10.37,2013-10-09 19:40:00,
2013-10-09 09:50:00,76.8,66.7,29.97,ENE,71,7.0,16.0,71,0.00,SCT,SCT,0.00,675.7,WeatherDisplay:10.37,2013-10-09 19:50:00,
2013-10-09 10:01:00,77.8,67.2,29.97,East,80,7.0,16.0,70,0.00,SCT,SCT,0.00,681.9,WeatherDisplay:10.37,2013-10-09 20:01:00,
2013-10-09 10:10:00,78.3,67.3,29.97,ENE,62,7.0,16.0,69,0.00,SCT,SCT,0.00,578.5,WeatherDisplay:10.37,2013-10-09 20:10:00,
2013-10-09 10:21:00,78.5,67.1,29.97,ENE,73,8.0,20.0,68,0.00,SCT,SCT,0.00,635.3,WeatherDisplay:10.37,2013-10-09 20:21:00,
2013-10-09 10:31:00,78.8,68.2,29.97,ENE,65,10.0,16.0,70,0.00,SCT,SCT,0.00,990.3,WeatherDisplay:10.37,2013-10-09 20:31:00,
2013-10-09 10:40:00,77.7,68.7,29.97,ENE,73,9.0,18.0,74,0.00,SCT,SCT,0.00,1288.3,WeatherDisplay:10.37,2013-10-09 20:40:00,
2013-10-09 10:50:00,76.4,65.9,29.96,East,83,10.0,20.0,70,0.00,SCT,SCT,0.00,1275.5,WeatherDisplay:10.37,2013-10-09 20:50:00,
2013-10-09 11:01:00,77.5,65.7,29.96,East,85,12.0,25.0,67,0.00,SCT,SCT,0.00,1454.4,WeatherDisplay:10.37,2013-10-09 21:01:00,
2013-10-09 11:10:00,78.3,65.6,29.96,East,97,9.0,20.0,65,0.00,SCT,SCT,0.00,491.8,WeatherDisplay:10.37,2013-10-09 21:10:00,
2013-10-09 11:20:00,78.0,64.9,29.95,East,85,12.0,22.0,64,0.00,SCT,SCT,0.00,467.8,WeatherDisplay:10.37,2013-10-09 21:20:00,
2013-10-09 11:31:00,77.8,65.1,29.95,East,88,10.0,18.0,65,0.00,SCT,SCT,0.00,385.3,WeatherDisplay:10.37,2013-10-09 21:31:00,
2013-10-09 11:40:00,77.1,66.1,29.94,ENE,73,10.0,21.0,69,0.00,SCT,SCT,0.00,0.0,WeatherDisplay:10.37,2013-10-09 21:40:00,
2013-10-09 11:50:00,76.4,65.9,29.94,East,81,10.0,25.0,70,0.00,SCT,SCT,0.00,0.0,WeatherDisplay:10.37,2013-10-09 21:50:00,
2013-10-09 12:01:00,77.1,65.7,29.94,ENE,78,12.0,22.0,68,0.00,SCT,SCT,0.00,0.0,WeatherDisplay:10.37,2013-10-09 22:01:00,
2013-10-09 12:10:00,78.7,66.4,29.93,ENE,75,13.0,17.0,66,0.00,SCT,SCT,0.00,647.1,WeatherDisplay:10.37,2013-10-09 22:10:00,
2013-10-09 12:20:00,79.0,66.2,29.92,ENE,77,8.0,17.0,65,0.00,SCT,SCT,0.00,1659.0,WeatherDisplay:10.37,2013-10-09 22:20:00,
2013-10-09 12:31:00,80.3,67.0,29.92,ENE,74,10.0,22.0,64,0.00,SCT,SCT,0.00,0.0,WeatherDisplay:10.37,2013-10-09 22:31:00,
2013-10-09 12:40:00,80.6,67.3,29.91,ENE,60,10.0,20.0,64,0.00,SCT,SCT,0.00,0.0,WeatherDisplay:10.37,2013-10-09 22:40:00,
2013-10-09 12:50:00,79.2,67.3,29.91,ENE,69,9.0,18.0,67,0.00,SCT,SCT,0.00,1435.4,WeatherDisplay:10.37,2013-10-09 22:50:00,
2013-10-09 13:01:00,79.7,67.8,29.91,ENE,74,7.0,21.0,67,0.00,SCT,SCT,0.00,1592.6,WeatherDisplay:10.37,2013-10-09 23:01:00,
2013-10-09 13:10:00,80.6,67.3,29.90,East,80,8.0,22.0,64,0.00,SCT,SCT,0.00,1549.5,WeatherDisplay:10.37,2013-10-09 23:10:00,
2013-10-09 13:20:00,80.9,68.0,29.89,East,79,10.0,18.0,65,0.00,SCT,SCT,0.00,1493.3,WeatherDisplay:10.37,2013-10-09 23:20:00,
2013-10-09 13:31:00,80.4,68.4,29.89,ENE,70,13.0,22.0,67,0.00,SCT,SCT,0.00,1437.2,WeatherDisplay:10.37,2013-10-09 23:31:00,
2013-10-09 13:40:00,79.6,68.1,29.89,ENE,75,12.0,18.0,68,0.00,SCT,SCT,0.00,1386.6,WeatherDisplay:10.37,2013-10-09 23:40:00,
2013-10-09 13:50:00,79.3,67.4,29.89,ENE,78,12.0,27.0,67,0.00,SCT,SCT,0.00,1312.8,WeatherDisplay:10.37,2013-10-09 23:50:00,
2013-10-09 14:01:00,79.8,66.5,29.88,ENE,70,13.0,22.0,64,0.00,SCT,SCT,0.00,1176.0,WeatherDisplay:10.37,2013-10-10 00:01:00,
2013-10-09 14:10:00,79.5,66.3,29.89,ENE,74,7.0,24.0,64,0.00,SCT,SCT,0.00,309.6,WeatherDisplay:10.37,2013-10-10 00:10:00,
2013-10-09 14:20:00,78.4,66.5,29.88,ENE,78,14.0,25.0,67,0.00,SCT,SCT,0.00,644.1,WeatherDisplay:10.37,2013-10-10 00:20:00,
2013-10-09 14:31:00,78.2,66.8,29.88,ENE,72,10.0,25.0,68,0.00,SCT,SCT,0.00,223.5,WeatherDisplay:10.37,2013-10-10 00:31:00,
2013-10-09 14:40:00,78.8,66.9,29.88,ENE,71,8.0,26.0,67,0.00,SCT,SCT,0.00,457.6,WeatherDisplay:10.37,2013-10-10 00:40:00,
2013-10-09 14:50:00,78.9,66.2,29.87,ENE,76,10.0,20.0,65,0.00,SCT,SCT,0.00,306.3,WeatherDisplay:10.37,2013-10-10 00:50:00,
2013-10-09 15:01:00,78.6,66.3,29.87,ENE,74,8.0,15.0,66,0.00,SCT,SCT,0.00,249.0,WeatherDisplay:10.37,2013-10-10 01:01:00,
2013-10-09 15:10:00,76.8,65.4,29.87,ENE,72,10.0,22.0,68,0.00,SCT,SCT,0.00,83.0,WeatherDisplay:10.37,2013-10-10 01:10:00,
2013-10-09 15:20:00,75.2,66.0,29.87,ENE,72,8.0,16.0,73,0.00,SCT,SCT,0.00,60.7,WeatherDisplay:10.37,2013-10-10 01:20:00,
2013-10-09 15:31:00,76.1,66.4,29.86,ENE,74,10.0,20.0,72,0.00,SCT,SCT,0.00,205.6,WeatherDisplay:10.37,2013-10-10 01:31:00,
2013-10-09 15:40:00,76.9,66.4,29.86,ENE,76,12.0,18.0,70,0.00,SCT,SCT,0.00,316.4,WeatherDisplay:10.37,2013-10-10 01:40:00,
2013-10-09 15:50:00,77.9,66.5,29.86,ENE,68,9.0,21.0,68,0.00,SCT,SCT,0.00,273.6,WeatherDisplay:10.37,2013-10-10 01:50:00,
2013-10-09 16:01:00,78.0,67.0,29.87,East,79,13.0,20.0,69,0.00,SCT,SCT,0.00,111.1,WeatherDisplay:10.37,2013-10-10 02:01:00,
2013-10-09 16:10:00,77.1,67.0,29.87,East,83,9.0,17.0,71,0.00,SCT,SCT,0.00,41.5,WeatherDisplay:10.37,2013-10-10 02:10:00,
2013-10-09 16:20:00,74.8,66.0,29.87,East,82,9.0,22.0,74,0.00,SCT,SCT,0.00,35.6,WeatherDisplay:10.37,2013-10-10 02:20:00,
2013-10-09 16:31:00,73.8,65.4,29.88,ENE,78,10.0,17.0,75,0.00,SCT,SCT,0.00,29.6,WeatherDisplay:10.37,2013-10-10 02:31:00,
2013-10-09 16:40:00,73.5,65.5,29.88,East,81,10.0,17.0,76,0.00,SCT,SCT,0.00,30.9,WeatherDisplay:10.37,2013-10-10 02:40:00,
2013-10-09 16:50:00,73.1,65.1,29.88,East,93,9.0,16.0,76,0.00,SCT,SCT,0.00,23.2,WeatherDisplay:10.37,2013-10-10 02:50:00,
2013-10-09 17:01:00,72.8,64.4,29.88,East,88,9.0,20.0,75,0.00,SCT,SCT,0.00,15.9,WeatherDisplay:10.37,2013-10-10 03:01:00,
2013-10-09 17:10:00,72.6,63.1,29.88,East,86,9.0,21.0,72,0.00,SCT,SCT,0.00,10.4,WeatherDisplay:10.37,2013-10-10 03:10:00,
2013-10-09 17:20:00,72.4,62.1,29.88,East,89,9.0,17.0,70,0.00,SCT,SCT,0.00,7.3,WeatherDisplay:10.37,2013-10-10 03:20:00,
2013-10-09 17:31:00,72.4,61.7,29.89,East,87,6.0,16.0,69,0.00,SCT,SCT,0.00,16.8,WeatherDisplay:10.37,2013-10-10 03:31:00,
2013-10-09 17:40:00,72.3,62.0,29.89,East,90,10.0,18.0,70,0.00,SCT,SCT,0.00,7.0,WeatherDisplay:10.37,2013-10-10 03:40:00,
2013-10-09 17:50:00,72.1,62.6,29.89,East,91,6.0,14.0,72,0.00,SCT,SCT,0.00,2.9,WeatherDisplay:10.37,2013-10-10 03:50:00,
2013-10-09 18:01:00,71.8,63.1,29.90,East,81,6.0,13.0,74,0.00,SCT,SCT,0.00,0.2,WeatherDisplay:10.37,2013-10-10 04:01:00,
2013-10-09 18:10:00,71.3,62.6,29.90,East,88,5.0,13.0,74,0.00,SCT,SCT,0.00,0.0,WeatherDisplay:10.37,2013-10-10 04:10:00,
2013-10-09 18:20:00,70.9,62.6,29.90,East,84,6.0,14.0,75,0.00,SCT,SCT,0.00,0.0,WeatherDisplay:10.37,2013-10-10 04:20:00,
2013-10-09 18:31:00,70.5,61.8,29.90,East,98,5.0,10.0,74,0.00,SCT,SCT,0.00,0.0,WeatherDisplay:10.37,2013-10-10 04:31:00,
2013-10-09 18:40:00,70.4,61.3,29.91,East,89,6.0,10.0,73,0.00,SCT,SCT,0.00,0.0,WeatherDisplay:10.37,2013-10-10 04:40:00,
2013-10-09 18:50:00,70.4,62.5,29.91,ENE,76,1.0,9.0,76,0.00,SCT,SCT,0.00,0.0,WeatherDisplay:10.37,2013-10-10 04:50:00,
2013-10-09 19:01:00,70.0,61.7,29.91,East,93,2.0,5.0,75,0.00,SCT,SCT,0.00,0.0,WeatherDisplay:10.37,2013-10-10 05:01:00,
2013-10-09 19:10:00,69.6,62.4,29.91,ENE,62,6.0,12.0,78,0.00,FEW,SCT,0.00,0.0,WeatherDisplay:10.37,2013-10-10 05:10:00,
2013-10-09 19:20:00,69.4,62.6,29.91,East,80,12.0,18.0,79,0.00,FEW,SCT,0.00,0.0,WeatherDisplay:10.37,2013-10-10 05:20:00,
2013-10-09 19:31:00,70.1,61.8,29.92,East,99,6.0,13.0,75,0.00,FEW,SCT,0.00,0.0,WeatherDisplay:10.37,2013-10-10 05:31:00,
2013-10-09 19:40:00,70.2,62.6,29.92,East,88,6.0,10.0,77,0.00,FEW,SCT,0.00,0.0,WeatherDisplay:10.37,2013-10-10 05:40:00,
2013-10-09 19:50:00,70.0,62.1,29.92,ESE,104,7.0,12.0,76,0.00,FEW,SCT,0.00,0.0,WeatherDisplay:10.37,2013-10-10 05:50:00,
2013-10-09 20:01:00,70.2,61.1,29.93,East,93,8.0,12.0,73,0.00,FEW,SCT,0.00,0.0,WeatherDisplay:10.37,2013-10-10 06:01:00,
2013-10-09 20:10:00,70.3,61.2,29.93,ESE,103,7.0,14.0,73,0.00,CLR,SCT,0.00,0.0,WeatherDisplay:10.37,2013-10-10 06:10:00,
2013-10-09 20:20:00,70.2,61.1,29.93,East,99,6.0,12.0,73,0.00,CLR,SCT,0.00,0.0,WeatherDisplay:10.37,2013-10-10 06:20:00,
2013-10-09 20:31:00,70.1,60.7,29.93,East,83,7.0,14.0,72,0.00,CLR,SCT,0.00,0.0,WeatherDisplay:10.37,2013-10-10 06:31:00,
2013-10-09 20:40:00,70.0,60.9,29.93,East,99,6.0,12.0,73,0.00,CLR,SCT,0.00,0.0,WeatherDisplay:10.37,2013-10-10 06:40:00,
2013-10-09 20:50:00,69.9,60.1,29.93,East,91,3.0,9.0,71,0.00,CLR,SCT,0.00,0.0,WeatherDisplay:10.37,2013-10-10 06:50:00,
2013-10-09 21:01:00,69.9,60.1,29.93,ENE,69,5.0,9.0,71,0.00,CLR,SCT,0.00,0.0,WeatherDisplay:10.37,2013-10-10 07:01:00,
2013-10-09 21:10:00,69.4,60.4,29.93,ENE,68,8.0,13.0,73,0.00,FEW,SCT,0.00,0.0,WeatherDisplay:10.37,2013-10-10 07:10:00,
2013-10-09 21:20:00,69.4,60.4,29.93,East,81,6.0,10.0,73,0.00,FEW,SCT,0.00,0.0,WeatherDisplay:10.37,2013-10-10 07:20:00,
2013-10-09 21:30:00,69.1,60.8,29.93,NE,53,7.0,14.0,75,0.00,FEW,SCT,0.00,0.0,WeatherDisplay:10.37,2013-10-10 07:30:00,
2013-10-09 21:40:00,68.6,60.4,29.93,East,98,5.0,9.0,75,0.00,FEW,SCT,0.00,0.0,WeatherDisplay:10.37,2013-10-10 07:40:00,
2013-10-09 21:50:00,68.6,61.1,29.94,ESE,102,3.0,9.0,77,0.00,FEW,SCT,0.00,0.0,WeatherDisplay:10.37,2013-10-10 07:50:00,
2013-10-09 22:00:00,68.8,61.3,29.94,East,100,3.0,10.0,77,0.00,FEW,SCT,0.00,0.0,WeatherDisplay:10.37,2013-10-10 08:00:00,
2013-10-09 22:10:00,68.9,61.4,29.93,East,95,5.0,14.0,77,0.00,FEW,SCT,0.00,0.0,WeatherDisplay:10.37,2013-10-10 08:10:00,
2013-10-09 22:20:00,69.0,62.2,29.93,ENE,76,6.0,12.0,79,0.00,FEW,SCT,0.00,0.0,WeatherDisplay:10.37,2013-10-10 08:20:00,
2013-10-09 22:30:00,68.8,62.7,29.93,East,81,3.0,14.0,81,0.00,FEW,SCT,0.00,0.0,WeatherDisplay:10.37,2013-10-10 08:30:00,
2013-10-09 22:40:00,68.7,61.9,29.93,East,96,3.0,10.0,79,0.00,FEW,SCT,0.00,0.0,WeatherDisplay:10.37,2013-10-10 08:40:00,
2013-10-09 22:50:00,68.4,61.6,29.93,ESE,106,1.0,6.0,79,0.00,FEW,SCT,0.00,0.0,WeatherDisplay:10.37,2013-10-10 08:50:00,
2013-10-09 23:00:00,68.1,61.3,29.93,ESE,104,0.0,4.0,79,0.00,FEW,SCT,0.00,0.0,WeatherDisplay:10.37,2013-10-10 09:00:00,
2013-10-09 23:10:00,67.6,60.9,29.93,ESE,106,2.0,5.0,79,0.00,CLR,SCT,0.00,0.0,WeatherDisplay:10.37,2013-10-10 09:10:00,
2013-10-09 23:20:00,67.0,61.0,29.93,East,98,2.0,5.0,81,0.00,CLR,SCT,0.00,0.0,WeatherDisplay:10.37,2013-10-10 09:20:00,
2013-10-09 23:30:00,66.7,60.7,29.92,East,87,0.0,4.0,81,0.00,CLR,SCT,0.00,0.0,WeatherDisplay:10.37,2013-10-10 09:30:00,
2013-10-09 23:40:00,66.3,60.3,29.92,East,87,0.0,3.0,81,0.00,CLR,SCT,0.00,0.0,WeatherDisplay:10.37,2013-10-10 09:40:00,
2013-10-09 23:50:00,65.9,59.9,29.91,East,87,2.0,5.0,81,0.00,CLR,SCT,0.00,0.0,WeatherDisplay:10.37,2013-10-10 09:50:00,